Regional Weather Roundup
Issued by NWS Charleston, WV

Home | Current Version | Previous Version | Graphics & Text | Print | Product List | Glossary On
Versions: 1 2 3 4 5 6 7 8 9 10 11 12 13 14 15 16 17 18 19 20 21 22 23 24 25 26 27 28 29 30 31 32 33 34 35 36 37 38 39 40 41 42 43 44 45 46 47 48 49 50
000
ASUS41 KRLX 041510
RWRRLX
West Virginia Regional Weather Roundup
National Weather Service Charleston WV
1100 AM EDT SAT JUL 04 2015

Note: "fair" indicates few or no clouds below 12,000 feet with no
significant weather and/or obstructions to visibility.

WVZ003-041600-
Northern Panhandle of West Virginia

CITY           SKY/WX    TMP DP  RH WIND       PRES   REMARKS
WHEELING       PTSUNNY   72  64  76 NW6       29.97R
$$

WVZ009-041600-
Northwest West Virginia

CITY           SKY/WX    TMP DP  RH WIND       PRES   REMARKS
PARKERSBURG    MOSUNNY   73  65  75 NW6       30.00S
$$

WVZ006-041600-
Western West Virginia

CITY           SKY/WX    TMP DP  RH WIND       PRES   REMARKS
HUNTINGTON     CLOUDY    72  66  81 N5        29.99R
$$

WVZ015-041600-
West Central West Virginia

CITY           SKY/WX    TMP DP  RH WIND       PRES   REMARKS
CHARLESTON     PTSUNNY   73  65  75 NW5       29.98S
$$

WVZ022-031-041600-
North Central West Virginia

CITY           SKY/WX    TMP DP  RH WIND       PRES   REMARKS
CLARKSBURG     CLOUDY    70  67  90 W6        29.96R
MORGANTOWN     CLOUDY    72  63  73 NW3       29.97R
$$

WVZ025-035-042-045-041600-
Southern West Virginia

CITY           SKY/WX    TMP DP  RH WIND       PRES   REMARKS
BECKLEY        RAIN      67  64  90 W10       30.04R FOG
LOGAN          CLOUDY    70  68  94 W5        29.98R
BLUEFIELD      CLOUDY    71  63  75 W9G20     30.06S
LEWISBURG      CLOUDY    71  65  83 NW6       30.02S
$$

WVZ047-041600-
Northern Mountains of West Virginia

CITY           SKY/WX    TMP DP  RH WIND       PRES   REMARKS
ELKINS         CLOUDY    68  63  84 W5        30.00R
$$

WVZ052-041600-
Eastern Panhandle of West Virginia

CITY           SKY/WX    TMP DP  RH WIND       PRES   REMARKS
MARTINSBURG    CLOUDY    72  67  84 S5        29.91F
PETERSBURG     LGT RAIN  72  66  82 CALM      29.94R
$$


USA.gov is the U.S. government's official web portal to all federal, state and local government web resources and services.